Location: Valdosta
(30.8330°N, 83.2790°W)
Time: 18:05:50
(UTC-05:00)

Amateur Radio Satellites - All Passes

Search period start: 20 November 2017 17:35
Search period end: 21 November 2017 17:35
Location: Valdosta, 30.8330°N, 83.2790°W

Satellite Date Start Highest point End Downlink Frequencies (MHz)
Time Altitude Azimuth
XW-2C 20 Nov 17:40:04 17:43:36 43° 75° (ENE) 17:47:10 145.795 - 145.815
LilacSat-2 20 Nov 17:41:01 17:44:39 50° 76° (ENE) 17:48:18 437.200
XW-2F 20 Nov 17:51:21 17:55:00 59° 76° (ENE) 17:58:38 145.980 - 146.000
DOVE 4 20 Nov 18:04:05 18:07:21 18° 267° (W) 18:10:45 437.250
SRMSAT 20 Nov 18:06:48 18:11:17 22° 169° (S) 18:15:45 437.500
JUGNU 20 Nov 18:12:17 18:17:03 26° 186° (S) 18:21:48 437.505
CUBEBUG 2 20 Nov 18:17:06 18:19:57 16° 70° (ENE) 18:22:45 437.445
KAITUO 1B 20 Nov 18:20:29 18:24:08 67° 259° (W) 18:27:48 145.475/437.950
RS-15 20 Nov 18:28:40 18:40:35 62° 110° (ESE) 18:52:36 29.354- 29.394
CUTE-I 20 Nov 18:32:47 18:38:02 57° 259° (W) 18:43:20 437.470
XW-2D 20 Nov 18:34:06 18:37:19 28° 262° (W) 18:40:33 145.860 - 145.880
KKS-1 20 Nov 18:39:53 18:43:20 22° 290° (WNW) 18:46:46 437.445
HO-68 20 Nov 18:43:29 18:50:37 71° 73° (ENE) 18:57:47 435.675
XW-2B 20 Nov 18:49:31 18:52:11 19° 264° (W) 18:54:51 145.730 - 145.750
CUTE 1.7 + AOD 2 20 Nov 19:02:33 19:06:44 79° 259° (W) 19:10:56 437.475
STARS 20 Nov 19:05:46 19:09:33 29° 288° (WNW) 19:13:17 437.465
XW-2A 20 Nov 19:06:26 19:09:07 23° 73° (ENE) 19:11:48 145.665 - 145.685
STRAND 1 20 Nov 19:06:59 19:10:53 22° 96° (E) 19:14:46 437.568
ZACube-1 20 Nov 19:07:29 19:10:06 16° 70° (ENE) 19:12:41 437.345
NUDT-PHONESAT 20 Nov 19:07:55 19:10:08 15° 265° (W) 19:12:21 437.300
UWE-3 20 Nov 19:13:53 19:18:06 39° 74° (ENE) 19:22:12 435.000/436.395/437.385
YUBILEINY 20 Nov 19:23:56 19:28:51 16° 279° (W) 19:33:46 435.215
SEEDS 20 Nov 19:34:29 19:38:32 53° 260° (W) 19:42:37 437.485
FO-29 20 Nov 19:42:37 19:47:11 17° 90° (E) 19:51:33 435.910
AAUSAT CUBESAT 2 20 Nov 19:43:09 19:47:14 73° 77° (ENE) 19:51:22 437.432
nSIGHT-1 20 Nov 19:50:17 19:52:49 22° 128° (SE) 19:55:22 .
CUBEBUG 2 20 Nov 19:51:56 19:56:13 37° 262° (W) 20:00:26 437.445
SRMSAT 20 Nov 19:54:55 19:59:55 28° 179° (S) 20:04:57 437.500
AO-73 20 Nov 19:57:04 20:01:19 56° 76° (ENE) 20:05:30 145.935
JUGNU 20 Nov 20:01:57 20:05:29 16° 195° (SSW) 20:09:00 437.505
Oscar 11 20 Nov 20:14:12 20:18:25 58° 76° (ENE) 20:22:38 .
DELFI C3 20 Nov 20:22:53 20:23:53 11° 68° (ENE) 20:24:55 145.870
ISS 20 Nov 20:31:33 20:34:45 57° 132° (SE) 20:37:58 437.550
HO-68 20 Nov 20:34:37 20:38:46 16° 266° (W) 20:42:57 435.675
XW-2A 20 Nov 20:40:37 20:41:46 11° 265° (W) 20:42:55 145.665 - 145.685
ZACube-1 20 Nov 20:42:07 20:46:04 33° 262° (W) 20:49:58 437.345
RS-15 20 Nov 20:42:36 20:53:37 37° 310° (NW) 21:04:40 29.354- 29.394
STRAND 1 20 Nov 20:45:31 20:50:01 32° 289° (WNW) 20:54:31 437.568
UWE-3 20 Nov 20:52:21 20:54:35 14° 266° (W) 20:56:48 435.000/436.395/437.385
FO-29 20 Nov 21:24:59 21:32:48 76° 285° (WNW) 21:40:01 435.910
nSIGHT-1 20 Nov 21:26:20 21:28:58 22° 322° (NW) 21:31:35 .
EO-88 20 Nov 21:32:46 21:36:09 39° 75° (ENE) 21:39:33 145.990 - 145.960
Max Valier Satellite 20 Nov 21:32:54 21:36:30 64° 77° (ENE) 21:40:07 145.860
SRMSAT 20 Nov 21:43:55 21:48:36 24° 189° (S) 21:53:17 437.500
DELFI C3 20 Nov 21:54:29 21:58:11 40° 261° (W) 22:01:57 145.870
PRISM 20 Nov 22:01:41 22:03:47 14° 95° (E) 22:05:52 437.425
SO-50 20 Nov 22:06:09 22:10:35 71° 298° (WNW) 22:15:04 436.795
ISS 20 Nov 22:10:04 22:11:28 12° 327° (NNW) 22:12:53 437.550
NO-84 20 Nov 22:23:51 22:26:38 17° 38° (NE) 22:29:23 435.350 FM
UNISAT 6 20 Nov 22:26:34 22:30:50 77° 282° (WNW) 22:35:04 437.425
TIGRISAT 20 Nov 22:31:05 22:35:19 76° 283° (WNW) 22:39:33 435.000
ESTCUBE 1 20 Nov 22:57:31 23:01:42 41° 74° (ENE) 23:05:55 437.505/2401.250
RS-15 20 Nov 23:09:28 23:11:23 10° 341° (NNW) 23:13:18 29.354- 29.394
FO-29 20 Nov 23:13:42 23:16:23 12° 302° (WNW) 23:19:03 435.910
VELOX 1 20 Nov 23:23:47 23:24:31 10° 66° (ENE) 23:25:15 145.980
LO-87 20 Nov 23:32:04 23:35:27 39° 261° (W) 23:38:52 145.935 - 145.965
SRMSAT 20 Nov 23:34:26 23:37:11 13° 198° (SSW) 23:39:56 437.500
PRISM 20 Nov 23:35:19 23:39:05 34° 287° (WNW) 23:42:49 437.425
DUCHIFAT 1 20 Nov 23:50:10 23:53:10 19° 96° (E) 23:56:10 145.980
EO-79 20 Nov 23:56:19 00:00:03 31° 98° (E) 00:03:46 145.935-145.965
NANOSAT C BR1 20 Nov 23:59:54 00:03:35 30° 98° (E) 00:07:14 145.865
NO-84 21 Nov 00:00:06 00:04:18 58° 233° (SW) 00:08:20 435.350 FM
O/OREOS (USA 219) 21 Nov 00:10:06 00:14:39 88° 72° (ENE) 00:19:08 437.305
PCSat 21 Nov 00:10:25 00:15:43 61° 112° (ESE) 00:21:03 145.827
AIST 2D 21 Nov 00:11:07 00:14:19 33° 285° (WNW) 00:17:31 435.315
POLYITAN 1 21 Nov 00:11:14 00:15:17 49° 100° (E) 00:19:20 437.675
SPROUT 21 Nov 00:20:30 00:24:48 89° 91° (E) 00:29:06 437.525
QB50P2 21 Nov 00:34:25 00:38:36 70° 284° (WNW) 00:42:45 145.880/145.840
ESTCUBE 1 21 Nov 00:36:35 00:38:37 13° 266° (W) 00:40:39 437.505/2401.250
BUGSAT 1 21 Nov 00:44:33 00:47:20 18° 96° (E) 00:50:04 437.445
UKube-1 21 Nov 00:51:59 00:54:13 14° 68° (ENE) 00:56:27 .
VELOX 1 21 Nov 00:56:05 01:00:24 55° 259° (W) 01:04:46 145.980
DUCHIFAT 1 21 Nov 01:25:22 01:28:44 24° 288° (WNW) 01:32:04 145.980
50 SAT 21 Nov 01:26:19 01:29:31 78° 80° (E) 01:32:46 437.505
RS-15 21 Nov 01:29:05 01:32:39 11° 22° (NNE) 01:36:09 29.354- 29.394
EO-79 21 Nov 01:33:01 01:35:29 15° 291° (WNW) 01:37:57 145.935-145.965
NANOSAT C BR1 21 Nov 01:36:27 01:38:59 16° 291° (WNW) 01:41:31 145.865
DX 1 21 Nov 01:42:38 01:46:59 79° 258° (WSW) 01:51:22 434.975-435.025
Oscar 19 21 Nov 01:53:18 01:58:25 64° 102° (ESE) 02:03:32 437.125/150
PCSat 21 Nov 01:56:20 01:59:29 15° 307° (NW) 02:02:38 145.827
MOZHAYETS 4 21 Nov 02:03:07 02:05:41 15° 69° (ENE) 02:08:17
Gurwin Techsat 1B 21 Nov 02:15:44 02:21:04 74° 103° (ESE) 02:26:22 435.225
BUGSAT 1 21 Nov 02:19:21 02:22:35 24° 288° (WNW) 02:25:47 437.445
AO-7 21 Nov 02:22:13 02:25:07 12° 93° (E) 02:28:02 .
UKube-1 21 Nov 02:25:50 02:29:51 38° 261° (W) 02:33:52 .
BEESAT 2 21 Nov 02:40:09 02:42:31 15° 109° (ESE) 02:44:55 435.950
BEESAT 3 21 Nov 03:05:09 03:09:02 53° 299° (WNW) 03:12:57 437.485
BEESAT 21 Nov 03:13:03 03:17:49 78° 77° (ENE) 03:22:35 436.000
ITUPSAT 1 21 Nov 03:22:32 03:27:19 85° 257° (WSW) 03:32:07 437.325
AO-85 21 Nov 03:24:55 03:27:25 17° 109° (ESE) 03:29:57 145.980
M-CUBED/EXP-1 PRIME 21 Nov 03:33:05 03:37:39 66° 288° (WNW) 03:42:14 437.505
Oscar 19 21 Nov 03:35:11 03:37:07 12° 295° (WNW) 03:39:05 437.125/150
MOZHAYETS 4 21 Nov 03:38:12 03:42:28 39° 261° (W) 03:46:45
RS-15 21 Nov 03:38:41 03:49:40 42° 52° (NE) 04:00:03 29.354- 29.394
ITAMSAT 1 21 Nov 03:45:21 03:50:12 39° 99° (E) 03:55:00 435.822/435.867
CUBESAT XI-V 21 Nov 03:48:47 03:53:11 50° 75° (ENE) 03:57:38 437.345
nSIGHT-1 21 Nov 03:57:01 03:59:41 24° 39° (NE) 04:02:20 .
KKS-1 21 Nov 03:57:43 03:59:33 12° 67° (ENE) 04:01:23 437.445
Gurwin Techsat 1B 21 Nov 03:59:05 04:00:18 11° 296° (WNW) 04:01:30 435.225
AO-7 21 Nov 04:10:16 04:18:40 85° 107° (ESE) 04:27:02 .
BEESAT 2 21 Nov 04:16:22 04:19:56 31° 302° (WNW) 04:23:33 435.950
YUBILEINY 21 Nov 04:26:02 04:30:55 16° 81° (E) 04:35:47 435.215
DOVE 4 21 Nov 04:30:42 04:33:59 17° 93° (E) 04:37:10 437.250
ISS 21 Nov 04:39:52 04:43:04 59° 44° (NE) 04:46:17 437.550
AO-85 21 Nov 05:04:17 05:07:32 25° 304° (WNW) 05:10:52 145.980
ITAMSAT 1 21 Nov 05:25:40 05:29:18 20° 292° (WNW) 05:32:56 435.822/435.867
CUBESAT XI-V 21 Nov 05:29:26 05:30:46 11° 267° (W) 05:32:05 437.345
KKS-1 21 Nov 05:31:19 05:35:37 47° 260° (W) 05:39:57 437.445
nSIGHT-1 21 Nov 05:33:24 05:35:47 20° 232° (SW) 05:38:09 .
RS-15 21 Nov 05:51:13 06:02:04 49° 252° (WSW) 06:12:27 29.354- 29.394
STARS 21 Nov 05:55:51 06:00:15 67° 259° (WSW) 06:04:40 437.465
KAITUO 1B 21 Nov 05:57:35 06:00:04 17° 95° (E) 06:02:32 145.475/437.950
AO-7 21 Nov 06:05:20 06:10:22 18° 303° (WNW) 06:15:25 .
DOVE 4 21 Nov 06:07:01 06:11:47 39° 287° (WNW) 06:16:17 437.250
XW-2D 21 Nov 06:11:10 06:14:45 39° 99° (E) 06:18:20 145.860 - 145.880
YUBILEINY 21 Nov 06:17:51 06:26:34 78° 276° (W) 06:35:24 435.215
STRAND 1 21 Nov 06:18:01 06:21:32 19° 68° (ENE) 06:25:03 437.568
HO-68 21 Nov 06:19:17 06:23:45 17° 94° (E) 06:28:11 435.675
XW-2B 21 Nov 06:25:49 06:29:36 62° 100° (E) 06:33:22 145.730 - 145.750
NUDT-PHONESAT 21 Nov 06:41:23 06:45:04 67° 101° (E) 06:48:46 437.300
SO-50 21 Nov 06:42:53 06:46:38 24° 55° (NE) 06:50:25 436.795
XW-2C 21 Nov 06:51:28 06:55:10 53° 284° (WNW) 06:58:54 145.795 - 145.815
CUTE 1.7 + AOD 2 21 Nov 06:53:05 06:56:41 26° 97° (E) 07:00:17 437.475
LilacSat-2 21 Nov 06:53:20 06:57:01 46° 284° (WNW) 07:00:42 437.200
CUTE-I 21 Nov 06:55:16 07:00:40 89° 287° (WNW) 07:06:00 437.470
XW-2F 21 Nov 07:02:23 07:05:58 40° 285° (WNW) 07:09:32 145.980 - 146.000
UWE-3 21 Nov 07:11:12 07:12:15 11° 93° (E) 07:13:19 435.000/436.395/437.385
SEEDS 21 Nov 07:23:30 07:27:26 36° 98° (E) 07:31:19 437.485
KAITUO 1B 21 Nov 07:30:57 07:33:56 22° 287° (WNW) 07:36:54 145.475/437.950
FO-29 21 Nov 07:31:12 07:36:35 28° 66° (ENE) 07:42:28 435.910
AAUSAT CUBESAT 2 21 Nov 07:31:31 07:34:18 17° 95° (E) 07:37:03 437.432
CUBEBUG 2 21 Nov 07:47:49 07:51:57 70° 101° (E) 07:56:03 437.445
XW-2D 21 Nov 07:48:26 07:48:29 10° 291° (WNW) 07:48:32 145.860 - 145.880
FALCONSAT 3 21 Nov 07:51:27 07:52:30 11° 145° (SE) 07:53:33 435.103
AO-73 21 Nov 07:51:28 07:53:57 15° 95° (E) 07:56:27 145.935
STRAND 1 21 Nov 07:55:32 08:00:21 40° 261° (W) 08:05:11 437.568
HO-68 21 Nov 08:04:45 08:11:51 67° 288° (WNW) 08:18:55 435.675
XW-2A 21 Nov 08:04:45 08:08:03 54° 100° (E) 08:11:22 145.665 - 145.685
Oscar 11 21 Nov 08:07:51 08:10:38 17° 95° (E) 08:13:23 .
YUBILEINY 21 Nov 08:22:33 08:24:42 11° 294° (WNW) 08:26:51 435.215
SO-50 21 Nov 08:22:59 08:27:02 30° 248° (WSW) 08:31:09 436.795
CUTE 1.7 + AOD 2 21 Nov 08:29:15 08:32:17 19° 289° (WNW) 08:35:20 437.475
ZACube-1 21 Nov 08:35:05 08:39:13 68° 102° (ESE) 08:43:22 437.345
UWE-3 21 Nov 08:44:57 08:48:50 40° 285° (WNW) 08:52:44 435.000/436.395/437.385
SEEDS 21 Nov 09:00:29 09:02:44 14° 291° (WNW) 09:04:58 437.485
PCSat 21 Nov 09:05:08 09:08:29 16° 54° (NE) 09:11:50 145.827
AAUSAT CUBESAT 2 21 Nov 09:06:07 09:09:40 27° 287° (WNW) 09:13:14 437.432
FO-29 21 Nov 09:15:17 09:21:13 42° 263° (W) 09:27:55 435.910
UNISAT 6 21 Nov 09:19:25 09:23:49 46° 75° (ENE) 09:28:07 437.425
TIGRISAT 21 Nov 09:23:45 09:28:09 46° 75° (ENE) 09:32:29 435.000
AO-73 21 Nov 09:26:33 09:30:09 30° 287° (WNW) 09:33:48 145.935
FALCONSAT 3 21 Nov 09:27:33 09:31:09 56° 156° (SSE) 09:34:47 435.103
DELFI C3 21 Nov 09:36:26 09:40:06 34° 98° (E) 09:43:43 145.870
Oscar 11 21 Nov 09:42:56 09:46:44 31° 287° (WNW) 09:50:32 .
PRISM 21 Nov 10:18:12 10:22:17 75° 78° (ENE) 10:26:25 437.425
EO-88 21 Nov 10:39:35 10:43:12 66° 283° (WNW) 10:46:49 145.990 - 145.960
AIST 2D 21 Nov 10:39:39 10:42:41 29° 75° (ENE) 10:45:43 435.315
Max Valier Satellite 21 Nov 10:41:34 10:44:59 39° 285° (WNW) 10:48:26 145.860
EO-79 21 Nov 10:45:04 10:46:50 12° 68° (ENE) 10:48:36 145.935-145.965
PCSat 21 Nov 10:46:54 10:52:12 57° 249° (WSW) 10:57:28 145.827
NANOSAT C BR1 21 Nov 10:48:31 10:50:02 12° 68° (ENE) 10:51:33 145.865
ESTCUBE 1 21 Nov 10:56:46 10:59:06 14° 94° (E) 11:01:26 437.505/2401.250
UNISAT 6 21 Nov 10:58:44 11:00:37 12° 266° (W) 11:02:30 437.425
POLYITAN 1 21 Nov 10:59:05 11:02:04 19° 70° (ENE) 11:05:01 437.675
TIGRISAT 21 Nov 11:03:09 11:04:57 12° 266° (W) 11:06:44 435.000
LO-87 21 Nov 11:04:25 11:07:09 21° 97° (E) 11:09:51 145.935 - 145.965
FALCONSAT 3 21 Nov 11:06:44 11:10:18 47° 350° (N) 11:13:53 435.103
DELFI C3 21 Nov 11:12:41 11:14:27 13° 291° (WNW) 11:16:13 145.870
QB50P2 21 Nov 11:21:16 11:25:14 39° 74° (ENE) 11:29:12 145.880/145.840
BEESAT 3 21 Nov 11:27:53 11:30:11 15° 53° (NE) 11:32:28 437.485
DUCHIFAT 1 21 Nov 12:10:23 12:14:35 72° 258° (WSW) 12:18:48 145.980
SPROUT 21 Nov 12:12:08 12:15:27 22° 96° (E) 12:18:45 437.525
EO-79 21 Nov 12:18:09 12:22:10 41° 261° (W) 12:26:11 145.935-145.965
NANOSAT C BR1 21 Nov 12:21:16 12:25:17 43° 260° (W) 12:29:19 145.865
ESTCUBE 1 21 Nov 12:31:45 12:35:59 40° 286° (WNW) 12:40:13 437.505/2401.250
POLYITAN 1 21 Nov 12:34:00 12:37:36 26° 263° (W) 12:41:11 437.675
LO-87 21 Nov 12:38:13 12:40:19 15° 289° (WNW) 12:42:24 145.935 - 145.965
O/OREOS (USA 219) 21 Nov 12:38:47 12:42:06 20° 101° (E) 12:45:27 437.305
BEESAT 2 21 Nov 12:38:48 12:42:10 25° 57° (ENE) 12:45:29 435.950
FALCONSAT 3 21 Nov 12:46:14 12:49:45 40° 6° (N) 12:53:15 435.103
VELOX 1 21 Nov 12:51:24 12:55:37 41° 99° (E) 12:59:47 145.980
QB50P2 21 Nov 12:59:24 13:01:06 12° 266° (W) 13:02:49 145.880/145.840
BUGSAT 1 21 Nov 13:02:11 13:06:24 78° 258° (WSW) 13:10:35 437.445
BEESAT 3 21 Nov 13:04:16 13:07:47 32° 248° (WSW) 13:11:13 437.485
Oscar 19 21 Nov 13:04:41 13:09:38 52° 74° (ENE) 13:14:36 437.125/150
AO-7 21 Nov 13:17:03 13:19:46 12° 54° (NE) 13:22:29 .
Gurwin Techsat 1B 21 Nov 13:31:14 13:36:29 69° 75° (ENE) 13:41:47 435.225
NO-84 21 Nov 13:35:59 13:36:52 11° 118° (ESE) 13:37:46 435.350 FM
DX 1 21 Nov 13:36:37 13:40:19 27° 98° (E) 13:44:00 434.975-435.025
AO-85 21 Nov 13:38:38 13:43:21 52° 61° (ENE) 13:48:21 145.980
SPROUT 21 Nov 13:47:54 13:51:10 22° 289° (WNW) 13:54:25 437.525
M-CUBED/EXP-1 PRIME 21 Nov 14:13:53 14:17:15 56° 71° (ENE) 14:20:54 437.505
BEESAT 2 21 Nov 14:16:51 14:19:40 19° 251° (WSW) 14:22:26 435.950
O/OREOS (USA 219) 21 Nov 14:17:18 14:21:16 28° 294° (WNW) 14:25:15 437.305
UKube-1 21 Nov 14:17:46 14:21:59 51° 101° (E) 14:26:10 .
50 SAT 21 Nov 14:20:41 14:23:49 50° 284° (WNW) 14:26:55 437.505
JUGNU 21 Nov 14:20:48 14:24:56 20° 168° (SSE) 14:29:05 437.505
FALCONSAT 3 21 Nov 14:25:19 14:29:02 87° 200° (SSW) 14:32:44 435.103
VELOX 1 21 Nov 14:29:24 14:31:37 14° 292° (WNW) 14:33:51 145.980
Oscar 19 21 Nov 14:46:46 14:49:10 13° 266° (W) 14:51:33 437.125/150
ITAMSAT 1 21 Nov 14:57:57 15:02:38 35° 71° (ENE) 15:07:21 435.822/435.867
AO-7 21 Nov 15:02:52 15:11:05 72° 71° (ENE) 15:19:20 .
NO-84 21 Nov 15:10:16 15:13:39 45° 314° (NW) 15:17:21 435.350 FM
DX 1 21 Nov 15:13:06 15:16:16 20° 290° (WNW) 15:19:26 434.975-435.025
Gurwin Techsat 1B 21 Nov 15:15:58 15:16:47 10° 268° (W) 15:17:37 435.225
BEESAT 21 Nov 15:18:58 15:23:07 30° 98° (E) 15:27:15 436.000
AO-85 21 Nov 15:20:40 15:23:26 15° 251° (WSW) 15:26:15 145.980
ITUPSAT 1 21 Nov 15:28:39 15:33:04 37° 99° (E) 15:37:26 437.325
DOVE 4 21 Nov 15:33:07 15:33:30 10° 64° (ENE) 15:33:55 437.250
MOZHAYETS 4 21 Nov 15:38:05 15:42:40 72° 102° (ESE) 15:47:13
CUBESAT XI-V 21 Nov 15:51:25 15:54:48 20° 95° (E) 15:58:11 437.345
UKube-1 21 Nov 15:56:33 15:57:28 11° 294° (WNW) 15:58:23 .
FALCONSAT 3 21 Nov 16:05:10 16:07:50 19° 212° (SSW) 16:10:30 435.103
SRMSAT 21 Nov 16:07:16 16:09:43 13° 162° (SSE) 16:12:10 437.500
JUGNU 21 Nov 16:08:32 16:13:24 27° 177° (S) 16:18:17 437.505
YUBILEINY 21 Nov 16:35:15 16:43:29 41° 78° (ENE) 16:51:38 435.215
ITAMSAT 1 21 Nov 16:38:10 16:42:05 21° 264° (W) 16:46:02 435.822/435.867
BEESAT 21 Nov 16:57:07 17:00:39 21° 291° (WNW) 17:04:11 436.000
AO-7 21 Nov 16:58:56 17:04:18 19° 264° (W) 17:09:44 .
XW-2B 21 Nov 17:03:18 17:05:06 13° 70° (ENE) 17:06:54 145.730 - 145.750
DOVE 4 21 Nov 17:05:28 17:10:22 75° 259° (WSW) 17:15:34 437.250
ITUPSAT 1 21 Nov 17:07:29 17:10:31 17° 292° (WNW) 17:13:34 437.325
NUDT-PHONESAT 21 Nov 17:16:40 17:18:19 13° 70° (ENE) 17:20:00 437.300
XW-2C 21 Nov 17:27:20 17:30:34 28° 74° (ENE) 17:33:48 145.795 - 145.815
